Погода в Маразе

Погода в Маразе : погода сейчас, прогноз погоды и архив. Всё, что Вы хотите узнать о погоде в Маразе!

Поиск расширенной информации на нашем сайте:

Другие новости

Новости СМИ2

Главная страница сайта

Новости сайта

02.10.2013

Напоминаем, что на нашем новом сайте вы можете получить высокодетализированные прогнозы погоды по пунктам России, СНГ и мира (включающие важные для авиации метеовеличины, такие как направление и скорость ветра, видимость, явления погоды, количество и форма облачности, нижняя и верхняя граница облачности), а также ознакомиться с разнообразными материалами по авиационной метеорологии и подборкой полезных ссылок на эту тему.

Сайт Метеоцентр.Азия посвящён разработке технологий оптимизации авиаметеорологического обслуживания, включая проектирование и перспективное создание нескольких автоматизированных авиаметеорологических систем:
- система выпуска высокодетальных прогностических карт явлений погоды для нижнего воздушного пространства по России и ближнему зарубежью;
- система верификации прогнозов TAF (выпускаемых синоптиками официальных АМСГ РФ и ближнего зарубежья) и AUTOTAF (выпускаемых сайтом Метеоцентр.Азия) - выявление ошибок, онлайн-сопоставление с фактической погодой METAR, автоматическое внесение коррективов в прогнозы при резком отклонении фактической погоды от прогноза, подсчёт оправдываемости прогнозов по элементам и в целом;
- система обработки, анализа и отображения авиаметеорологической информации для применения провайдерами метеорологической информации.


Погода в Маразе - сегодня

Время (UTC), дата Ветер
(°,м/с) 
Видим.   Явления Облачность Т
(°С)
Тd
(°С)
f(%) Тe
(°С)
Pmin
(гПа)
dP
(гПа)
Po
(мм)
O2
(г/м3)
Тmin Tmax R s Состояние
почвы
06 27.03.17 270 (З) 20000 м    6/6 600 м 
[Frnb]
+12.7 +3.2 52 +11  1011.4  0.1  694  267           
09 27.03.17 270 (З) 10  20000 м    9/9 600 м 
[Frnb]
+16.4 +3 41 +15  1010.6  0.2  694  263           
12 27.03.17 200 (Ю) 20000 м    4/0 верхняя 
[Ci sp]
+17.8 +4 40 +18  1008.8  -1.2  693  261           
15 27.03.17 180 (Ю) 20000 м    8/8 600 м 
[Frnb]
+15.9 +2.9 42 +16  1008.5  -0.8  692  263           
18 27.03.17 200 (Ю) 10 км    ясно 
+10.7 +4 63 +11  1010.4  0.3  693  268    +18.5       
21 27.03.17 030 (СВ) 10 км    ясно 
+5.3 +1.5 76 +6  1013.5  1.1  694  274           
00 28.03.17 190 (Ю) 10 км    ясно 
+4 +0.9 80 +4  1012.8  -1  693  275           
03 28.03.17 080 (В) 20000 м    8/8 600 м 
[Frnb]
+3.8 -0.9 71 +5  1013.3  0.4  693  275           
06 28.03.17 060 (СВ) 20000 м    10/10 600 м 
[Frnb]
+7.8 +2.5 69 +8  1014.1  695  272           
09 28.03.17 260 (З) 0500 м  слаб. морось{дождь, туман}  ?/?  
+3.9 +3.9 100 +2  1017.3  1.8  696  276           
12 28.03.17 200 (Ю) 0500 м  слаб. дождь{туман}  ?/?  
+4.1 +4.1 100 +4  1017.2  0.4  696  276           
15 28.03.17 240 (ЮЗ) 20000 м  {дождь}  10/10 600 м 
[Frnb]
+4.3 +3.3 93 +2  1017.7  0.1  696  276         
18 28.03.17 240 (ЮЗ) 10 км  {дождь}  10/10 600 м 
[Frnb]
+3.7 +2.4 91 +1  1017.6  -0.3  696  276    +8.3       
21 28.03.17 260 (З) 10 км    ясно 
+2.6 +1.3 91 1017.5  -0.5  696  277           
00 29.03.17 280 (З) 10 км    ясно 
+2.1 +0.8 91 -1  1016.9  -0.7  695  278           
03 29.03.17 280 (З) 20000 м    8/8 600 м 
[Frnb]
+1.5 -0.2 88 +1  1016.3  -0.7  695  278           
06 29.03.17 280 (З) 20000 м    ясно 
+9.5 -0.9 48 +9  1015.4  1.5  696  271           
09 29.03.17 270 (З) 20000 м    ясно 
+13.8 -4.7 27 +14  1015.1  697  268           
12 29.03.17 120 (ЮВ) 20000 м    ясно 
+13.2 +0.6 42 +13  1016  0.7  697  268           
15 29.03.17 080 (В) 20000 м    ясно 
+7.8 +1.9 66 +8  1019.5  1.6  698  273           
18 29.03.17 070 (В) 10 км    ясно 
+4.4 +1.1 79 +4  1023.5  2.6  700  277    +14.4       
21 29.03.17 090 (В) 10 км    ясно 
+1.8 -0.4 85 +3  1026.1  1.6  701  281           
00 30.03.17 320 (СЗ) 10 км    ясно 
-0.3 -2.1 88 1028.4  1.3  702  283           
03 30.03.17 280 (З) 20000 м    4/0 верхняя 
[Ci sp]
+1.3 -0.9 85 +1  1027  -0.7  702  281           
06 30.03.17 270 (З) 20000 м    3/3 600 м 
[Frnb]
+5.9 +0.2 67 +4  1026.9  1.4  703  277           
Время (UTC), дата Ветер
(°,м/с) 
Видим.   Явления Облачность Т
(°С)
Тd
(°С)
f(%) Тe
(°С)
Pmin
(гПа)
dP
(гПа)
Po
(мм)
O2
(г/м3)
Тmin Tmax R s Состояние
почвы

Для получения пояснительной информации подведите курсор к названию столбца.

ПОГОДА в Маразе - архив

Всё, что Вы хотите узнать о погоде в Маразе - удобно и подробно!

Выберите нужную дату (начиная с 1 января 2015* года) и нажмите кнопку "Найти".
Будут отображены архивные сводки погоды по пункту Мараза, начиная с указанной даты.


Отображать данные в формате CSV (для использования в таблицах Excel)


Внимание! Наш архив погоды предназначен исключительно для личного некоммерческого использования в познавательных целях. Если Вам необходимы официальные справки о состоянии погоды (для производственных, юридических, коммерческих и т.п. целей), обращайтесь в органы Росгидромета.

*Примечание: данная дата относится к архиву по метеостанциям СССР (Россия, СНГ, Балтия).
Архив по метеостанциям Зарубежной Европы и Азии (кроме Китая) хранится 10 дней, по другим регионам земного шара (Китай, Африка, Америка, Австралия, Океания) - 1 день.

Мараза - район местоположения метеостанции


Название, широта, долгота, высота метеостанции:
Мараза 40.5°ш. 48.9°д. 755 м над ур. моря [Азербайджан]

Дополнительная информация

В oтличие oт бoльшинства пoгoдных сайтoв мы публикуем пoдрoбную метеoинфoрмацию в детальнoм прoфессиoнальнoм фoрмате.

Характеристики температуры и влажнoсти вoздуха измеряются на высoте 2 м в тени вдали oт зданий и деревьев.
Скoрoсть ветра измеряется на высoте 10 м (на урoвне рoста челoвека скoрoсть ветра ниже в 1.5-2 раза). Если метеoстанция нахoдится в гoрoде или в лесу, тo скoрoсть ветра занижена на 2-4 м/с пo сравнению с oткрытым местoм. Скoрoсть ветра над акватoриями крупных рек и oзёр, а также на вершинах хoлмoв на 2-5 м/с выше, чем в oбычных услoвиях.
Атмoсфернoе давление в разных тoчках местнoсти мoжет значительнo oтличаться oт давления на метеoстанции, в зависимoсти oт услoвий рельефа (при пoдъёме на 10 м давление пoнижается примернo на 1 мм рт.ст.).